Theta_e
317 321 332 331 336 338 343 347 345 348 346 344 344 347 347 352 350 348 346 348 345 345 344 345 343 340 330 340 346 341 341 334 332 328 331 336 337 338 336 336 336 335 334 333 333 334 333 329 323
318 329 329 324 332 337 340 343 352 349 348 344 346 345 348 358 351 348 350 348 347 343 344 344 344 332 332 345 348 343 338 332 328 334 336 337 334 335 334 335 334 333 332 331 331 330 330 332 339
319 329 329 327 328 336 338 348 350 347 347 348 349 345 348 354 348 347 349 348 345 342 340 342 341 328 340 347 343 341 333 327 329 332 334 331 327 331 334 333 332 330 330 329 329 330 334 338 342
328 324 319 328 331 329 338 348 346 343 339 345 349 351 350 349 348 349 349 347 343 339 338 343 335 330 344 345 340 336 327 324 328 330 327 325 324 333 333 331 331 331 332 334 334 335 337 341 342
320 316 322 324 326 326 329 346 343 347 344 342 348 353 353 350 349 348 348 345 341 337 341 339 329 334 344 344 340 332 322 322 323 324 323 319 319 319 324 326 329 330 330 332 333 334 338 342 342
318 314 319 320 320 321 345 343 344 344 337 340 352 351 352 349 348 348 347 344 339 336 338 335 335 342 345 344 340 331 323 322 322 323 323 318 316 315 318 323 322 324 328 327 331 334 340 341 338
319 316 320 320 317 320 347 340 343 340 338 339 341 350 351 349 347 346 345 343 337 337 337 333 332 342 344 342 337 329 322 322 324 325 324 319 317 319 322 321 323 323 323 324 328 337 339 337 335
313 312 317 314 316 333 342 341 338 337 338 336 339 351 353 348 346 345 344 342 339 339 337 335 335 343 343 341 335 326 322 323 327 327 324 322 321 319 320 322 323 323 322 324 328 336 337 334 332
310 313 315 317 317 322 341 340 340 338 337 340 344 341 345 347 346 344 343 342 341 341 338 334 335 344 342 338 334 325 323 323 327 330 329 325 323 323 323 323 324 323 322 325 328 335 333 330 326
312 311 314 314 315 324 341 340 343 341 339 340 345 347 347 345 344 344 343 342 341 340 338 332 337 348 343 338 334 325 323 326 328 331 331 329 326 325 325 325 325 325 321 327 331 334 331 326 324
311 314 313 315 314 318 339 341 341 340 340 341 343 348 346 345 345 344 343 341 338 337 338 332 335 345 343 339 335 326 324 325 330 331 332 330 327 327 327 327 326 325 321 326 331 332 328 326 326
315 313 314 315 314 335 339 339 343 338 337 337 339 344 345 345 345 344 344 342 340 339 337 332 333 333 340 335 333 326 325 325 330 332 332 331 328 327 327 325 324 325 321 321 325 327 327 326 326
314 314 313 313 311 331 331 338 339 337 342 341 341 343 344 344 344 345 344 343 340 338 337 333 330 333 339 333 334 329 327 327 329 332 332 330 329 328 327 325 323 324 323 321 321 323 325 326 324
315 314 313 313 312 323 324 330 336 338 343 344 342 343 342 342 342 344 344 344 343 342 338 334 330 331 336 333 334 331 331 333 334 334 331 330 330 328 326 324 324 324 323 323 322 321 324 324 323
315 315 314 312 313 322 328 332 334 335 344 345 344 344 338 336 339 341 343 344 344 344 341 334 331 331 333 334 334 333 333 336 336 334 332 330 329 328 327 326 324 323 324 324 323 321 324 323 323
314 310 313 313 314 323 323 329 335 341 344 345 344 337 335 334 334 336 335 338 344 344 343 337 334 330 332 339 339 334 334 336 337 333 331 330 329 327 326 324 322 321 321 323 321 321 322 322 322
311 314 315 315 323 325 329 334 336 340 343 344 341 337 336 336 332 333 335 336 337 342 343 341 339 334 334 342 342 336 336 337 336 333 332 330 328 326 324 322 321 320 320 317 318 323 322 320 321
317 317 316 317 320 331 332 335 339 341 342 343 342 340 339 338 335 337 337 337 337 340 342 342 340 338 339 342 341 338 338 336 332 332 333 330 327 325 323 321 319 318 319 316 318 322 322 322 321
315 316 317 315 331 332 334 335 332 332 339 339 340 340 339 338 336 338 339 339 337 338 340 341 341 339 338 340 338 336 333 332 332 332 332 330 329 326 324 321 317 317 318 320 320 319 319 319 317
316 317 315 326 329 331 335 334 331 330 334 335 336 336 335 334 332 334 341 340 338 339 340 340 339 339 339 338 336 335 333 333 333 333 332 331 329 326 324 322 319 323 320 321 320 319 319 317 317
318 318 320 328 330 329 331 332 332 330 329 331 333 335 337 338 334 332 341 342 339 340 341 341 340 340 337 336 335 335 335 334 333 333 331 330 329 327 324 321 321 322 317 316 318 318 318 319 318
322 318 321 329 326 331 326 330 328 330 330 333 335 334 338 337 329 335 341 341 340 339 342 342 340 339 338 338 337 336 336 335 335 335 333 331 329 327 327 321 321 321 316 316 315 318 318 316 317
322 320 322 321 317 320 326 326 322 332 330 333 332 335 339 339 332 340 343 342 341 339 340 342 342 341 339 338 337 337 337 337 336 334 333 331 331 329 327 323 324 324 321 315 316 318 319 317 316
318 320 319 320 318 324 322 323 323 334 329 331 328 335 342 344 343 343 344 342 341 340 341 342 342 341 340 341 339 339 339 338 337 334 332 331 330 329 327 326 322 323 322 317 316 317 316 316 316
320 319 321 325 326 329 327 329 326 326 328 333 331 334 340 344 343 343 342 341 341 341 341 341 341 342 341 341 341 341 340 339 336 333 333 332 331 331 329 327 325 323 323 319 317 315 315 315 315
322 320 321 326 327 324 326 333 328 327 328 328 328 332 339 344 342 342 341 341 342 342 342 341 341 341 340 339 342 341 340 339 336 335 334 333 332 331 330 328 327 325 324 321 318 315 315 314 315
321 319 318 321 320 329 327 327 325 330 330 328 330 332 336 342 340 340 340 341 342 342 343 342 342 341 342 342 342 341 340 339 337 336 335 334 332 331 330 328 327 326 325 322 318 317 314 315 315
320 316 320 316 326 331 325 328 327 328 329 328 330 333 334 337 336 336 338 341 342 343 343 343 343 343 344 342 341 341 340 339 337 336 336 334 333 332 331 329 328 325 325 324 319 317 315 315 315
318 318 315 316 319 322 325 327 322 325 324 325 324 328 332 336 335 333 335 340 340 342 343 344 343 343 340 339 339 340 340 339 337 337 337 335 334 332 331 330 329 329 327 323 320 318 317 316 315
319 318 316 321 322 320 321 323 319 322 321 321 323 323 326 332 334 331 330 335 339 339 339 340 339 338 338 338 339 340 340 340 337 335 336 336 334 332 331 332 332 331 329 326 324 320 318 317 316
Wind_Speed
4 5 4 3 4 4 3 0 3 2 3 4 2 3 5 4 1 3 4 8 26 24 21 19 18 16 16 17 13 11 10 9 9 10 10 11 11 12 11 12 11 11 11 10 10 9 7 8 7
4 6 3 2 4 3 5 2 4 2 3 4 6 4 4 2 3 8 11 16 23 26 21 19 17 17 17 15 13 10 9 9 10 10 10 10 11 11 11 12 12 11 10 9 9 9 9 9 13
6 3 3 4 3 3 4 3 4 2 3 2 3 5 2 2 7 12 7 21 26 23 20 18 16 17 18 15 12 10 9 10 10 9 10 9 10 11 12 13 12 12 12 11 11 10 11 11 15
5 4 4 4 3 5 4 2 1 1 2 5 2 6 5 1 7 10 20 23 24 22 20 18 17 18 17 14 12 10 10 10 10 9 9 10 10 11 12 13 14 14 15 15 12 11 11 15 15
4 3 3 3 4 5 3 4 8 4 3 3 3 3 4 3 10 21 24 27 25 23 20 18 17 17 15 13 11 10 11 11 11 10 10 10 11 13 13 15 16 15 15 14 12 9 12 14 15
4 3 5 2 3 4 3 9 2 2 5 3 4 5 2 8 21 24 26 27 24 24 20 17 15 15 13 11 10 9 10 10 11 12 12 12 13 14 16 17 17 16 15 12 14 12 16 16 16
6 4 3 2 3 3 2 3 4 4 3 3 2 4 2 5 13 22 24 24 23 21 19 19 18 15 12 10 9 9 9 9 10 12 13 13 14 16 17 16 17 17 15 12 13 15 16 15 14
5 4 1 3 2 3 2 2 2 4 2 2 2 5 5 10 18 20 21 21 21 20 18 17 18 16 13 11 9 8 8 8 10 10 11 12 14 14 14 14 14 15 16 14 14 15 16 14 13
3 4 1 3 1 1 4 4 2 1 2 1 1 2 9 29 26 24 22 20 20 18 17 17 17 15 14 12 11 10 9 8 9 9 8 9 10 10 10 10 11 13 15 15 13 15 12 12 13
4 4 7 5 3 4 5 5 5 1 1 1 3 9 26 27 25 23 19 17 18 21 21 19 18 16 16 14 12 11 10 8 8 7 6 5 5 6 6 6 8 9 13 15 15 14 13 12 14
3 4 5 3 6 6 7 4 2 5 3 7 6 12 16 24 19 18 23 24 27 24 22 22 21 17 17 13 12 11 10 9 8 5 5 3 2 1 2 2 3 5 10 15 15 14 12 13 16
2 6 4 1 4 5 7 5 4 5 6 4 10 15 14 13 15 16 13 22 25 24 25 23 22 19 19 15 13 13 11 10 8 5 3 3 1 1 1 1 4 5 8 13 12 13 13 12 14
2 3 1 1 6 7 7 4 4 2 8 4 11 11 10 8 10 13 17 16 23 26 25 25 25 22 21 17 14 14 13 11 8 6 4 3 3 1 1 0 2 6 7 8 11 10 13 12 12
3 3 6 4 4 6 6 3 4 5 4 4 9 13 8 6 9 12 16 19 26 24 24 24 25 23 21 19 16 15 13 11 9 6 5 3 3 4 2 3 4 6 8 5 9 11 12 13 12
3 4 1 4 3 4 5 3 1 4 4 6 8 1 8 6 11 16 23 24 28 26 24 26 25 24 22 21 17 16 15 13 10 8 5 4 5 4 3 3 6 7 7 7 3 12 14 13 13
4 5 4 4 4 3 6 3 7 2 2 6 4 3 5 3 6 6 6 22 25 27 27 25 25 25 25 21 17 16 16 15 13 11 8 6 5 4 4 5 8 8 7 9 10 8 15 14 13
6 3 3 7 4 1 4 1 1 3 4 5 5 3 3 5 4 5 4 4 20 26 28 27 26 25 25 21 18 16 16 16 14 13 11 8 5 4 6 8 8 7 8 9 10 11 12 17 17
2 2 0 1 4 7 5 2 2 1 2 6 6 8 2 3 3 4 4 3 12 20 22 27 27 25 24 20 16 16 15 16 17 14 11 8 7 6 5 6 7 7 9 5 6 10 10 11 16
4 3 3 3 2 6 4 4 3 3 3 6 8 10 7 6 2 5 7 4 11 16 20 24 28 26 22 20 17 17 18 17 15 13 11 10 9 7 6 5 7 8 6 6 8 9 9 9 9
5 4 5 3 2 6 2 4 4 3 4 4 7 9 10 7 2 5 7 5 13 17 19 23 25 23 22 24 21 19 18 15 13 11 11 10 9 9 8 7 8 7 7 7 7 7 7 8 10
3 6 5 7 6 8 7 6 4 4 5 6 7 7 7 7 6 4 4 7 12 19 22 24 23 23 24 22 21 15 13 10 13 14 12 10 9 9 10 10 9 7 7 8 8 8 9 11 10
0 5 6 9 4 5 2 3 6 5 7 5 9 9 9 6 4 3 6 8 15 21 22 22 23 24 22 19 20 18 14 13 11 13 13 11 10 10 10 12 11 8 8 8 10 10 10 9 12
3 5 5 4 5 4 1 3 4 3 7 8 10 10 9 8 7 6 7 8 12 18 23 23 22 23 22 21 20 17 13 8 9 8 9 11 12 12 13 14 13 11 10 10 8 11 10 9 9
8 7 9 6 4 2 2 4 3 6 9 8 6 8 8 9 6 3 5 6 8 15 19 20 21 21 21 21 19 16 14 11 10 10 10 11 11 11 13 16 16 13 12 11 10 10 10 10 10
6 7 3 3 4 4 0 2 7 5 6 14 14 10 8 6 5 1 1 3 10 16 20 20 21 22 18 17 17 16 15 13 11 11 12 11 11 12 12 17 18 17 15 12 12 13 13 12 13
3 6 6 5 3 3 3 3 3 5 4 1 3 4 5 7 5 6 6 11 18 19 20 23 23 21 17 15 18 18 17 15 13 12 12 13 13 11 9 13 18 19 17 16 15 14 14 15 14
4 3 5 7 3 2 2 5 5 3 4 4 6 7 10 8 8 8 11 15 19 21 22 23 23 19 17 17 18 18 17 17 17 15 14 14 13 12 10 11 14 17 19 19 18 17 16 15 14
4 5 4 3 4 3 4 3 4 2 7 7 8 12 9 8 8 8 12 18 20 22 23 22 20 17 17 17 18 19 18 17 18 18 18 16 13 11 11 11 12 13 16 18 18 19 17 18 16
2 3 7 5 4 5 1 5 6 5 5 8 8 8 9 12 13 11 13 19 21 22 21 21 18 18 18 17 17 19 21 21 18 19 17 20 14 13 13 15 16 17 16 18 19 20 19 20 18
3 4 4 5 3 2 4 5 2 3 7 6 9 6 9 10 9 9 10 16 19 20 17 19 19 20 19 17 17 20 22 21 20 18 14 17 20 17 17 17 18 18 19 19 21 23 24 23 22
Wind_Direction
90 133 127 66 51 55 324 43 279 313 42 343 73 146 148 60 137 202 153 169 159 155 155 154 147 142 136 128 126 130 122 113 108 106 97 89 83 79 77 79 76 71 66 62 62 68 72 80 94
126 132 89 78 74 49 283 206 240 353 58 99 79 91 52 45 82 126 128 159 161 154 156 151 146 141 135 127 136 129 116 111 107 97 88 84 80 75 72 72 68 65 63 62 62 64 68 76 80
132 115 85 90 99 172 235 185 212 278 323 14 78 58 97 83 104 144 145 160 157 153 154 147 150 142 137 140 140 129 120 112 106 95 89 77 70 73 75 70 63 58 57 58 64 73 71 88 99
144 35 36 89 208 257 230 212 79 199 167 61 119 74 75 118 141 161 152 159 155 154 153 155 151 146 140 151 142 132 124 114 102 94 84 75 73 76 77 74 72 69 69 67 64 69 81 96 107
61 60 66 62 265 271 303 145 203 163 77 22 342 98 86 25 148 151 154 161 159 157 158 159 154 151 149 149 139 135 130 121 111 103 91 82 77 78 79 81 78 71 65 62 58 70 96 105 104
46 97 56 343 268 273 305 206 34 110 68 21 74 89 82 145 144 152 158 162 164 162 161 158 153 147 152 147 138 133 129 121 114 106 93 85 83 84 90 87 76 66 59 60 61 83 110 113 107
112 80 176 231 266 306 203 6 333 48 76 39 342 113 147 152 144 153 162 163 165 165 164 159 154 151 162 149 145 141 138 127 120 113 94 89 85 89 93 85 76 65 55 70 87 102 112 110 101
106 90 91 248 297 40 138 56 54 57 131 228 155 175 180 153 147 158 160 163 167 168 168 166 158 154 166 158 152 150 146 133 125 115 97 89 91 92 92 87 75 60 62 78 111 117 120 106 100
120 66 244 239 216 112 187 138 86 156 120 153 215 199 140 145 161 152 155 163 169 174 176 173 166 164 176 167 162 162 156 147 141 129 112 94 90 91 90 84 71 65 61 80 116 124 117 108 102
90 106 212 211 216 191 179 157 123 71 265 262 89 79 139 145 152 148 159 167 172 179 184 180 179 177 183 179 172 168 168 162 158 139 131 127 111 99 87 79 74 67 76 90 109 127 120 116 111
159 187 203 248 236 156 160 88 88 132 257 228 161 157 162 156 163 168 169 172 183 185 189 187 185 186 190 187 181 178 180 172 161 162 179 161 162 104 83 55 78 86 102 102 120 126 120 119 121
21 248 217 197 142 101 120 127 149 198 250 264 157 174 177 161 170 172 184 173 182 190 194 193 194 191 192 192 188 188 189 183 179 180 206 235 209 104 114 69 45 140 113 118 127 130 129 128 129
156 274 135 230 89 132 126 130 147 234 278 83 141 167 180 180 164 176 191 184 190 193 198 200 198 199 196 196 196 195 192 188 191 203 228 233 234 280 277 155 86 146 145 137 132 140 140 138 139
234 278 282 73 203 142 107 118 146 244 267 134 166 197 111 126 147 177 187 194 200 199 202 204 206 204 204 200 198 199 196 195 204 210 220 211 225 240 259 147 142 140 173 167 155 156 157 149 152
315 326 126 28 145 133 131 75 286 246 222 190 216 59 96 104 145 175 194 201 208 205 204 205 209 209 208 206 206 204 200 205 210 214 221 219 223 231 236 195 170 159 155 158 148 170 172 164 166
20 55 45 325 352 107 157 257 344 64 193 203 225 279 60 75 110 119 171 212 216 214 207 205 208 212 212 212 213 209 208 213 211 206 218 221 223 225 230 184 167 162 151 154 174 179 176 181 185
9 102 50 337 54 52 55 227 82 5 357 245 261 269 45 344 47 221 200 225 213 218 213 207 207 211 215 215 220 218 219 218 212 204 213 222 224 221 192 180 178 185 180 178 179 190 192 193 196
77 40 84 238 314 42 68 71 75 240 262 271 300 291 236 252 264 291 265 245 210 208 210 210 209 212 215 217 220 222 218 203 198 204 219 224 222 213 210 202 195 197 190 200 206 197 196 196 200
138 193 201 265 126 81 20 89 19 37 252 275 280 277 279 280 233 315 312 248 193 196 200 205 208 210 208 211 196 203 190 195 202 207 223 230 229 220 229 219 199 191 217 207 190 181 189 191 186
166 176 173 57 54 85 69 32 356 330 247 220 258 278 281 285 217 278 291 221 206 190 195 196 205 205 201 195 183 194 198 207 217 227 231 229 227 228 229 228 215 235 217 191 195 203 200 207 201
167 161 176 146 100 42 102 354 322 303 319 324 295 279 274 262 257 213 211 221 209 194 193 192 194 188 188 192 194 204 205 217 226 233 230 229 228 232 231 223 238 242 223 220 224 228 226 220 213
240 171 139 130 122 164 206 238 269 246 280 271 268 281 275 260 209 219 214 196 203 200 196 193 192 194 201 204 206 208 202 217 239 249 247 236 235 233 247 232 240 244 249 245 243 234 234 223 211
182 96 112 108 92 101 345 82 273 109 255 235 242 259 261 245 221 220 220 222 210 202 200 199 199 201 205 209 211 218 216 240 260 268 247 240 243 248 246 239 238 247 255 260 258 232 236 237 228
160 69 38 46 80 60 250 145 248 184 205 203 230 238 246 250 241 250 229 208 192 199 201 201 206 211 216 222 221 224 233 245 255 253 240 246 249 262 248 235 242 248 253 254 249 247 248 243 240
75 69 16 14 19 207 241 59 244 247 224 183 204 212 226 246 262 243 310 222 206 205 202 200 209 223 228 236 235 239 245 250 256 251 250 247 252 264 264 238 241 249 255 256 251 251 250 245 241
97 143 150 177 195 243 16 239 263 254 205 56 155 236 209 215 227 238 210 216 222 217 211 210 220 227 237 247 244 245 248 251 257 261 261 260 257 267 271 244 243 246 251 247 245 248 249 248 242
180 72 150 102 21 85 253 292 341 54 135 184 185 191 215 211 208 212 233 231 227 219 216 218 224 232 248 255 250 246 247 251 259 264 268 268 264 263 262 254 247 248 246 242 241 247 246 241 240
112 148 75 19 134 194 308 275 242 230 222 196 208 215 217 217 221 219 219 226 230 223 217 221 231 238 245 245 244 245 248 252 266 271 272 269 268 262 255 259 258 256 251 245 242 246 246 243 239
60 65 57 110 110 145 128 280 220 255 276 210 244 235 215 215 216 213 218 216 228 227 211 217 223 229 233 237 240 244 242 240 246 245 257 271 266 277 265 259 252 251 251 248 242 245 248 245 243
110 128 120 115 210 74 132 259 313 289 299 271 278 234 208 216 214 215 215 205 213 227 219 213 219 226 231 236 240 247 251 251 258 257 255 254 264 272 275 265 259 252 249 249 245 243 243 244 244